Location: Granada
(37.1830°N, 3.6000°W)
Time: 00:18:44
(UTC+02:00)

Iridium 70 - Visible Passes

Search period start: 02 October 2014 00:00
Search period end: 12 October 2014 00:00
Orbit: 776 x 779 km, 86.4° (Epoch: 01 October)

Date Brightness Start Highest point End Pass type
(mag) Time Alt. Az. Time Alt. Az. Time Alt. Az.
02 Oct 8.4 06:38:46 10° NNE 06:42:30 20° ENE 06:46:12 10° SE visible
02 Oct 8.4 21:14:31 10° WSW 21:18:09 19° WNW 21:21:47 10° NNW visible
03 Oct 5.5 07:44:44 10° N 07:49:57 80° W 07:55:08 10° S visible
03 Oct 7.4 20:39:40 10° SSW 20:44:23 35° W 20:49:09 10° NNW visible
04 Oct 6.4 07:11:18 10° N 07:16:24 53° E 07:21:28 10° SSE visible
05 Oct 7.7 06:38:16 10° NNE 06:42:44 28° E 06:47:10 10° SE visible
05 Oct 8.8 21:16:10 10° W 21:18:26 13° WNW 21:20:43 10° NW visible
06 Oct 8.5 06:05:57 10° NE 06:08:56 15° ENE 06:11:54 10° ESE visible
06 Oct 5.7 07:44:55 10° NNW 07:49:59 54° W 07:55:01 10° SSW visible
06 Oct 8.1 20:40:26 10° SW 20:44:36 24° W 20:48:47 10° NNW visible
07 Oct 5.7 07:11:17 10° N 07:16:31 80° E 07:21:42 10° S visible
08 Oct 6.9 06:38:00 10° NNE 06:42:55 41° E 06:47:48 10° SSE visible
09 Oct 7.9 06:05:10 10° NNE 06:09:12 22° E 06:13:12 10° SE visible
09 Oct 6.1 07:45:15 10° NNW 07:49:59 36° W 07:54:41 10° SSW visible
09 Oct 8.6 20:41:35 10° WSW 20:44:51 17° WNW 20:48:07 10° NW visible
10 Oct 8.7 05:33:35 10° NE 05:35:20 12° ENE 05:37:05 10° E visible
10 Oct 5.4 07:11:23 10° N 07:16:34 70° W 07:21:44 10° S visible
10 Oct 7.8 20:06:30 10° SW 20:11:04 31° W 20:15:39 10° NNW visible
11 Oct 6.0 06:37:53 10° N 06:43:03 61° E 06:48:11 10° SSE visible
